Temp
14 14 13 13 13 14 14 15 14 17 16 16 15 13 12 12 12 11 10 11 10 11 10 8 9 7 7 8 8 9 8 7 8 6 5 4 3 3 2 1 1 1 1 1
10 12 13 12 13 13 14 14 15 15 14 15 13 11 10 10 11 11 11 11 11 10 9 8 7 8 9 9 10 9 8 8 7 6 5 4 3 2 2 1 1 1 1 1
14 13 13 12 12 13 15 15 15 13 14 12 11 10 9 9 9 9 9 9 9 8 9 9 10 10 9 10 10 9 8 7 7 6 5 4 4 3 2 1 1 1 1 0
13 12 13 15 15 14 14 15 14 13 11 11 10 10 10 9 9 8 8 8 7 7 6 7 7 7 7 7 6 5 5 5 6 5 5 4 4 3 2 2 1 1 1 0
13 14 15 15 15 14 13 13 11 11 10 10 9 10 10 8 6 5 4 3 3 3 2 2 1 2 2 2 2 3 3 2 3 3 3 3 3 3 3 2 1 1 1 0
11 13 13 13 12 12 14 11 9 8 9 10 8 6 6 5 3 2 2 1 1 1 0 0 -0 -0 0 0 0 0 0 0 1 1 2 1 1 2 3 2 1 1 0 0
12 12 12 12 12 12 10 12 9 9 9 8 6 5 3 3 3 2 1 1 1 0 -0 -0 -0 -0 -0 -1 -1 -1 -1 -1 -1 -0 0 1 1 1 0 2 1 1 0 -0
11 12 13 10 11 11 9 9 9 8 7 4 4 3 3 3 3 2 0 0 -0 -0 -0 -1 -1 -1 -1 -1 -2 -2 -2 -2 -2 -2 -1 -0 -0 0 -1 0 -0 -0 -0 -1
10 11 8 8 8 8 8 7 5 4 4 4 3 3 3 2 1 0 -0 -1 -1 -2 -2 -2 -2 -3 -3 -4 -4 -4 -3 -3 -3 -2 -2 -2 -1 -1 -1 -1 -1 -2 -1 -2
10 9 8 7 7 6 6 4 3 3 3 3 2 3 2 0 -1 -2 -3 -3 -3 -3 -3 -4 -4 -4 -4 -5 -5 -5 -5 -5 -4 -4 -3 -2 -2 -1 -1 -1 -2 -2 -2 -2
7 7 6 5 7 4 3 3 3 2 1 1 -0 -1 -1 -3 -3 -3 -4 -4 -4 -5 -5 -5 -5 -5 -5 -6 -6 -6 -6 -5 -5 -5 -5 -4 -3 -2 -2 -2 -2 -2 -2 -1
10 9 6 4 4 4 3 2 2 0 -1 -2 -2 -3 -4 -5 -4 -4 -5 -5 -5 -6 -6 -6 -5 -5 -6 -7 -7 -7 -6 -6 -6 -6 -6 -5 -4 -4 -3 -2 -2 -2 -2 -2
8 7 4 3 3 3 1 0 -1 -1 -2 -4 -4 -5 -5 -5 -5 -5 -6 -6 -6 -6 -6 -6 -6 -6 -7 -8 -8 -8 -7 -7 -7 -7 -7 -6 -5 -4 -4 -3 -3 -2 -2 -2
3 2 1 1 1 1 -0 -1 -2 -4 -4 -4 -5 -5 -5 -6 -6 -6 -6 -6 -6 -6 -7 -7 -8 -8 -9 -9 -9 -9 -9 -8 -9 -9 -9 -8 -7 -7 -4 -4 -4 -3 -3 -3
4 4 3 2 1 -1 -2 -3 -4 -4 -5 -5 -5 -6 -6 -6 -6 -6 -6 -6 -7 -7 -7 -8 -9 -9 -10 -10 -10 -10 -10 -9 -10 -10 -10 -10 -9 -8 -7 -6 -6 -6 -5 -5
1 1 1 0 -1 -2 -3 -4 -4 -4 -5 -5 -5 -6 -6 -6 -6 -7 -7 -8 -8 -8 -8 -9 -10 -11 -11 -11 -11 -11 -11 -11 -11 -11 -11 -10 -10 -9 -8 -8 -7 -7 -7 -7
0 -0 -1 -1 -2 -3 -3 -4 -4 -5 -5 -5 -5 -5 -6 -7 -7 -7 -8 -9 -9 -9 -9 -10 -11 -11 -11 -12 -12 -13 -13 -13 -13 -12 -11 -11 -10 -10 -10 -9 -9 -8 -7 -7
3 2 0 -1 -2 -3 -4 -4 -4 -4 -5 -5 -5 -6 -7 -8 -8 -9 -9 -9 -9 -10 -10 -11 -11 -12 -12 -12 -13 -13 -14 -14 -13 -13 -12 -11 -11 -11 -11 -10 -10 -10 -9 -9
0 -0 -1 -2 -3 -3 -4 -4 -4 -4 -4 -5 -6 -7 -8 -8 -9 -10 -10 -10 -10 -11 -11 -12 -12 -12 -12 -13 -13 -14 -14 -14 -14 -14 -14 -13 -12 -11 -11 -10 -10 -11 -10 -10
-2 -2 -2 -3 -4 -4 -4 -4 -4 -4 -5 -6 -7 -8 -8 -9 -10 -10 -10 -10 -11 -11 -12 -12 -12 -13 -13 -14 -14 -15 -15 -15 -15 -15 -15 -15 -14 -13 -13 -12 -11 -11 -11 -11
-2 -3 -3 -3 -4 -4 -4 -4 -4 -5 -6 -7 -8 -8 -9 -10 -10 -10 -11 -11 -11 -12 -12 -12 -13 -13 -14 -15 -15 -15 -15 -15 -16 -16 -16 -15 -15 -14 -14 -13 -13 -13 -13 -12
-3 -3 -4 -4 -5 -4 -4 -4 -5 -6 -7 -8 -9 -9 -10 -10 -10 -11 -11 -11 -12 -12 -13 -13 -14 -14 -14 -15 -15 -16 -16 -16 -17 -17 -16 -17 -16 -15 -15 -14 -14 -14 -13 -13
-3 -4 -5 -5 -5 -5 -5 -5 -5 -6 -8 -9 -9 -10 -10 -10 -11 -11 -12 -12 -12 -12 -13 -13 -14 -14 -14 -15 -16 -16 -17 -17 -17 -17 -17 -18 -18 -18 -17 -16 -16 -16 -15 -15
-4 -4 -5 -4 -5 -6 -7 -7 -7 -7 -8 -9 -9 -10 -10 -11 -11 -12 -12 -12 -12 -13 -13 -13 -14 -14 -14 -15 -17 -17 -18 -18 -17 -17 -18 -18 -19 -19 -19 -19 -18 -16 -17 -17
-4 -4 -5 -5 -5 -6 -6 -7 -7 -8 -9 -9 -9 -10 -10 -11 -11 -12 -12 -12 -12 -13 -13 -13 -13 -14 -14 -15 -17 -17 -18 -18 -18 -18 -19 -19 -19 -20 -20 -20 -19 -19 -19 -18
-4 -5 -5 -5 -5 -5 -6 -7 -8 -8 -9 -9 -10 -10 -10 -11 -11 -12 -12 -13 -13 -13 -13 -14 -14 -14 -15 -15 -16 -17 -18 -18 -18 -19 -19 -20 -20 -20 -20 -20 -20 -20 -20 -20
-5 -5 -5 -6 -5 -6 -6 -7 -8 -9 -9 -9 -10 -10 -11 -11 -11 -12 -13 -13 -13 -13 -14 -14 -14 -14 -15 -15 -16 -17 -18 -19 -19 -19 -19 -20 -20 -21 -21 -21 -21 -20 -20 -20
Height
811 812 817 816 812 810 808 802 806 775 779 772 774 780 779 775 772 772 777 776 774 775 778 784 785 785 786 787 786 784 782 781 778 778 777 775 773 773 773 772 770 768 767 766
828 816 814 811 803 801 797 791 789 782 780 773 776 780 782 782 776 778 781 781 781 782 782 782 781 781 782 782 780 779 777 775 773 773 771 769 768 767 767 766 765 765 763 760
803 807 806 802 793 788 778 776 777 785 772 779 783 784 787 787 787 789 788 786 785 783 782 780 780 779 779 776 774 772 770 768 767 766 765 763 762 761 760 759 759 758 757 755
807 811 804 773 770 775 773 766 771 774 777 783 786 786 787 788 789 790 789 789 788 787 784 783 781 780 778 776 774 772 769 766 763 760 758 757 756 753 751 751 751 750 749 749
807 799 783 772 768 773 776 771 777 776 782 786 786 785 788 792 794 796 796 796 794 791 789 786 784 782 778 775 773 769 766 764 761 758 754 750 748 745 743 742 741 742 741 741
811 802 791 773 774 773 772 781 780 785 785 785 789 800 798 800 799 799 799 798 797 795 793 789 786 784 781 779 775 773 768 763 760 756 750 745 741 738 732 734 733 734 735 735
799 798 785 772 775 774 791 778 784 785 786 789 796 802 804 803 802 803 804 803 800 797 793 791 788 785 781 778 775 772 769 762 757 750 746 739 732 728 725 723 724 724 726 727
800 794 781 780 778 783 788 786 786 789 790 796 800 802 803 803 804 804 804 802 799 797 796 794 791 786 783 780 777 772 766 761 754 747 741 732 726 720 717 716 717 717 716 718
789 781 781 785 785 787 786 790 795 796 797 799 800 802 804 805 807 808 806 804 801 800 797 795 792 789 785 782 775 769 765 759 752 744 737 729 721 714 710 706 706 707 710 710
783 779 784 786 786 786 787 793 796 799 801 801 802 804 806 809 810 810 808 805 803 802 800 796 793 791 788 781 775 770 764 757 750 742 733 725 718 709 703 699 696 698 701 703
788 787 788 788 785 790 793 796 800 803 803 804 806 810 811 813 813 811 810 808 807 803 801 798 795 791 787 782 777 771 765 758 751 744 736 726 718 708 698 692 689 691 696 698
766 768 775 783 789 791 794 797 801 804 807 810 811 813 815 814 812 812 812 809 805 804 802 799 794 790 786 781 776 771 765 759 753 745 737 729 720 709 700 692 687 689 691 693
765 769 776 784 791 793 796 801 804 806 809 812 815 816 814 813 814 812 810 808 806 804 801 797 793 788 784 780 775 770 765 758 752 745 739 731 722 714 705 696 691 688 689 690
770 776 788 789 792 795 799 803 807 810 812 814 815 814 814 814 812 811 809 808 806 802 798 795 792 788 783 778 773 768 762 756 751 745 739 733 727 719 710 702 696 690 687 686
771 769 774 785 792 797 801 805 808 811 813 815 814 814 813 811 812 810 811 808 804 800 797 794 791 786 782 776 770 765 759 754 749 743 738 732 726 720 714 708 703 698 693 689
774 777 782 785 791 797 801 805 807 811 812 812 814 812 811 811 811 812 809 806 802 798 796 793 790 785 780 774 769 764 759 754 748 741 735 729 724 719 713 709 704 701 697 694
771 782 784 788 791 796 799 803 806 808 810 811 811 810 810 811 812 809 806 804 801 798 795 793 788 782 777 773 769 763 757 750 745 739 733 728 722 718 713 708 704 700 698 695
755 763 771 776 785 792 798 802 805 806 808 809 809 810 811 812 810 808 805 802 799 796 793 789 784 779 775 772 767 762 755 749 743 737 731 725 720 716 711 706 702 699 696 693
757 764 772 779 785 790 796 800 802 804 805 807 808 810 811 809 809 807 803 800 798 794 789 785 781 777 773 770 765 759 752 746 740 735 729 723 716 712 707 703 699 696 693 690
760 766 772 779 785 790 794 797 801 802 804 806 808 809 808 809 808 805 801 799 797 794 788 783 779 775 771 767 761 754 749 743 738 732 727 722 716 711 706 701 697 693 690 687
759 766 773 779 785 789 792 796 797 801 804 806 807 808 807 807 807 803 800 797 794 790 785 781 777 774 769 763 756 751 746 740 735 730 725 719 713 708 703 698 695 691 687 683
761 767 772 778 783 788 792 794 798 801 803 805 806 806 806 806 803 801 799 797 792 788 783 779 776 772 766 760 754 749 743 738 733 727 722 717 712 706 700 695 692 688 684 679
762 767 772 777 783 787 791 795 798 800 803 805 805 805 805 804 802 800 797 794 789 785 782 778 774 769 764 758 752 746 741 735 730 724 719 714 709 704 698 693 689 685 681 677
762 767 772 779 783 787 792 795 797 799 801 803 804 804 803 802 801 799 797 793 788 784 781 777 773 768 762 756 750 744 738 733 727 721 715 710 705 700 694 689 685 681 677 673
761 767 774 778 782 786 790 793 796 798 800 802 801 801 801 800 799 797 794 790 786 783 779 776 772 766 760 755 749 742 736 730 724 717 711 706 700 695 690 685 681 676 672 668
761 767 772 775 780 784 787 791 794 797 798 799 799 799 799 798 797 795 792 788 784 781 778 775 770 765 759 754 748 741 734 727 720 714 708 702 696 690 685 680 675 670 665 661
763 767 772 777 781 783 786 789 792 794 796 797 797 797 797 796 794 792 790 787 783 780 777 773 769 764 759 753 747 740 733 726 719 712 704 698 691 685 679 674 668 663 658 654
Wind_Speed
4 3 3 6 13 16 14 17 9 25 19 18 12 7 7 7 6 2 6 7 9 8 6 7 21 23 21 24 20 19 19 21 26 23 21 21 20 20 21 20 19 17 18 19
4 7 9 13 17 15 17 18 16 21 22 9 2 4 8 9 8 5 5 6 7 6 7 13 16 17 22 22 22 24 24 27 28 25 23 23 23 22 21 21 19 19 19 18
5 5 5 12 13 17 14 11 8 11 8 2 4 6 6 7 7 6 6 5 6 6 9 14 18 21 21 25 29 30 30 30 31 30 28 28 27 24 24 23 21 20 19 18
4 3 10 6 0 7 15 14 10 3 3 3 2 1 3 3 4 6 8 10 11 15 19 23 25 24 26 29 31 32 31 32 33 34 34 34 31 30 27 23 23 20 19 18
2 7 15 12 5 4 6 6 3 4 5 2 2 1 4 10 11 11 11 15 17 21 22 24 28 29 27 27 27 25 26 29 33 36 36 36 37 39 34 27 24 23 21 18
3 4 6 1 3 2 1 7 3 4 3 2 2 3 1 9 11 12 18 19 20 20 19 21 24 24 23 24 23 25 27 28 30 32 33 33 35 39 40 31 28 24 23 21
7 5 7 2 2 1 3 4 1 3 1 2 3 2 4 6 11 15 15 14 16 15 16 18 24 24 22 21 22 27 31 31 30 32 32 33 35 34 35 35 30 26 24 21
3 4 9 4 2 5 1 1 2 3 4 8 7 7 8 9 9 14 14 18 20 18 18 19 23 24 22 22 26 28 29 31 32 34 36 32 28 31 28 30 28 30 26 22
8 6 3 2 3 2 2 3 3 5 8 8 7 8 8 8 9 11 14 17 18 18 18 20 23 23 21 24 28 29 29 30 31 33 34 34 31 29 27 28 26 23 23 21
2 3 4 3 1 3 4 9 10 9 8 7 8 7 7 8 7 10 13 15 18 18 16 17 21 20 22 26 29 29 30 30 32 33 36 35 36 29 28 26 22 21 18 19
4 3 3 3 5 9 11 11 11 10 9 9 8 8 6 5 6 9 13 14 13 15 17 17 18 19 20 24 26 26 26 28 29 31 32 34 37 32 28 27 24 18 21 22
7 8 3 5 10 11 11 10 10 11 10 11 9 5 5 4 8 9 8 11 14 15 16 17 18 18 19 23 26 25 26 25 26 28 30 31 30 35 30 19 17 18 16 14
4 7 8 11 9 10 11 10 11 10 10 8 8 7 7 5 4 5 9 12 13 14 15 16 17 15 22 25 26 25 25 25 26 26 27 29 31 28 25 30 20 13 16 18
14 14 7 7 6 11 14 14 15 13 12 9 8 7 4 1 6 8 11 13 13 13 12 13 17 19 23 26 26 25 27 24 23 26 27 27 28 29 26 19 20 20 19 17
9 4 8 13 14 11 16 15 9 7 7 6 6 4 5 8 7 10 11 11 13 13 10 15 18 21 25 26 25 28 29 23 25 27 27 28 25 25 22 22 19 18 22 19
10 13 14 14 12 11 10 8 8 6 6 6 5 4 6 6 9 10 10 12 13 12 12 16 19 23 25 25 26 27 26 27 29 28 28 26 25 23 22 21 19 17 15 15
17 11 11 11 12 11 9 9 9 8 8 7 4 4 6 6 8 8 10 11 10 10 12 17 23 27 28 22 27 25 27 29 29 25 25 25 24 23 22 20 20 18 17 17
7 11 12 14 14 11 10 13 12 12 8 6 4 3 2 4 7 8 11 11 10 15 13 23 26 27 26 24 26 26 29 27 26 27 27 25 23 24 23 20 19 19 19 20
16 14 17 18 18 16 16 14 14 10 7 3 1 2 3 4 6 9 10 12 11 15 22 25 28 25 22 24 27 28 25 25 26 25 26 28 23 22 23 21 19 18 18 20
15 19 20 19 18 18 15 17 12 9 6 4 6 2 2 2 6 9 11 10 11 16 23 24 26 22 22 27 30 28 23 25 25 25 25 26 25 23 23 22 20 19 19 19
14 20 20 19 17 18 18 17 12 10 8 7 3 1 1 3 7 8 12 10 17 21 24 26 23 21 27 30 33 24 25 26 25 24 25 25 25 24 23 22 19 21 22 21
19 18 18 21 20 18 17 14 10 11 10 7 3 1 1 3 9 10 7 10 19 21 25 25 22 27 31 34 28 25 26 26 25 25 24 25 25 25 25 20 18 21 23 23
19 20 20 22 19 19 17 12 12 11 10 7 2 2 2 3 7 9 11 17 20 22 23 24 26 29 31 32 27 26 27 26 27 24 25 25 25 25 24 21 20 23 20 25
20 20 19 19 22 19 12 13 12 8 8 6 4 2 1 4 7 9 11 16 18 20 22 24 26 28 29 31 28 27 27 27 26 26 26 26 24 24 24 23 23 19 23 25
21 20 20 20 17 13 15 16 11 9 8 6 5 4 2 3 6 10 13 16 18 20 22 23 25 27 29 31 32 31 28 28 28 28 27 26 25 25 24 24 22 27 27 26
21 18 18 19 18 20 18 16 13 11 10 8 6 5 3 3 7 9 12 16 17 19 21 23 25 27 29 31 33 33 30 29 29 28 28 27 26 26 26 26 26 26 27 29
18 20 19 16 18 18 17 14 13 12 11 9 7 5 3 4 7 10 13 17 18 19 20 22 24 26 28 31 33 34 32 31 30 31 30 28 28 27 27 28 28 28 28 29
Wind_Direction
243 239 181 229 238 251 214 239 234 274 273 282 309 322 316 303 301 135 161 177 199 234 287 267 257 259 260 249 255 269 275 279 283 287 287 287 281 278 280 282 279 279 280 283
268 233 226 253 246 235 243 248 257 271 277 302 73 34 13 7 8 357 347 335 317 308 285 273 261 257 254 255 264 267 267 270 276 276 275 275 270 268 271 271 270 271 272 276
274 212 272 279 232 224 239 227 214 253 261 36 39 31 21 15 45 44 32 24 353 324 307 299 287 279 272 268 271 269 268 270 274 270 266 266 264 260 262 262 262 262 266 272
282 69 268 254 22 241 230 247 238 270 108 88 74 97 78 43 62 14 3 2 355 351 341 336 330 314 302 296 293 291 286 282 279 277 271 269 266 259 257 256 255 257 258 269
245 255 284 292 318 192 198 265 198 162 120 89 350 130 54 24 27 29 31 26 20 18 23 28 18 8 8 4 354 342 331 318 311 299 285 277 272 265 257 251 248 250 250 256
125 251 258 230 245 4 339 279 146 114 146 113 34 64 341 30 40 41 36 28 19 15 20 24 15 12 8 1 360 351 343 335 327 314 296 283 275 268 258 250 246 242 247 248
234 262 276 274 161 335 112 309 147 149 114 102 68 111 86 46 48 44 28 19 15 18 23 16 9 7 4 357 353 342 335 333 324 318 307 294 282 273 254 244 238 234 240 243
193 222 272 19 50 172 178 36 80 80 58 87 99 86 67 52 33 20 23 13 12 12 12 12 7 3 359 355 347 341 336 330 328 326 324 309 295 280 252 241 236 236 231 236
190 219 101 23 105 2 266 79 53 90 83 102 93 77 62 48 41 22 7 13 16 16 8 4 3 0 355 350 347 342 339 334 327 324 323 324 309 285 261 234 229 228 226 227
50 199 204 194 110 48 89 114 96 96 97 87 85 70 68 48 25 14 31 16 10 7 357 355 358 1 356 352 349 347 342 340 340 339 333 327 322 296 272 240 223 223 220 225
247 248 153 260 195 129 110 108 110 90 76 73 79 55 56 45 13 39 16 9 2 0 356 346 344 348 351 349 346 343 340 339 340 340 338 343 339 319 280 250 228 216 232 237
240 201 147 143 145 138 131 130 126 116 94 75 80 75 76 58 44 31 4 356 0 350 340 334 331 335 353 353 349 344 340 337 335 337 337 336 340 340 335 286 255 246 247 242
219 120 117 122 121 127 117 120 110 109 112 108 89 97 76 50 12 8 8 360 344 332 331 336 344 356 352 345 339 332 326 326 330 333 335 337 336 332 336 340 333 298 260 251
123 110 94 149 159 136 129 124 117 109 112 123 125 90 80 74 38 17 0 337 330 331 334 349 350 342 341 340 336 333 327 326 333 332 331 330 329 333 333 342 345 329 316 282
156 77 134 128 131 133 132 133 130 130 140 133 110 121 69 41 12 355 324 328 335 339 346 350 343 340 338 340 340 338 333 325 329 327 324 322 319 322 323 337 347 354 2 10
111 113 133 141 142 143 144 147 142 148 148 129 142 84 48 14 347 308 324 336 340 340 347 347 344 340 343 344 344 336 331 326 323 320 319 319 320 319 318 320 322 329 337 344
126 145 149 152 158 161 165 160 156 156 142 148 116 52 16 339 310 326 338 340 346 356 343 345 340 345 346 342 340 334 330 325 324 321 317 314 314 316 315 317 314 309 311 313
129 157 164 157 159 157 154 158 156 150 159 135 87 27 325 312 323 327 338 347 347 347 343 344 345 341 341 335 335 331 327 322 324 320 316 313 311 311 308 305 306 309 306 306
139 142 142 148 152 152 157 157 154 152 141 141 149 195 276 323 323 326 343 351 346 341 343 346 342 342 334 332 331 328 323 322 320 321 320 315 317 319 314 301 300 301 301 304
127 132 136 139 147 154 153 158 154 133 147 158 168 182 325 329 338 338 351 341 349 341 342 342 345 337 334 331 331 327 322 323 320 319 319 319 316 313 315 310 322 316 311 308
138 141 144 147 151 152 155 163 149 158 156 161 160 227 310 331 352 349 350 340 345 346 347 348 343 337 335 334 334 327 324 324 323 322 323 318 314 314 310 307 312 316 308 299
146 148 146 146 146 151 158 152 165 160 164 168 166 188 259 342 357 357 346 343 340 349 348 350 344 341 340 339 335 327 325 324 321 315 322 323 321 316 312 303 318 317 316 304
149 149 146 150 152 153 148 159 165 169 178 175 175 196 220 2 0 355 335 348 351 351 351 352 349 347 346 346 337 329 326 324 321 318 320 320 317 316 315 321 319 313 313 323
144 146 146 153 152 142 145 162 162 182 192 187 216 211 251 351 1 357 347 348 354 354 355 354 352 351 351 351 340 332 328 325 323 322 320 317 315 312 311 310 308 305 315 314
146 144 150 151 151 159 164 169 172 180 184 201 215 210 236 344 352 345 349 355 357 357 355 356 355 355 356 355 349 342 330 326 325 322 322 318 314 312 310 309 305 308 308 306
147 154 158 161 169 172 169 172 183 191 195 203 206 206 238 319 338 343 353 358 358 358 358 357 358 358 358 357 355 353 337 331 329 326 324 319 316 313 310 307 305 303 302 304
141 146 148 156 175 172 173 180 186 195 200 209 211 210 244 312 336 342 351 357 357 357 357 358 359 359 359 358 358 358 351 339 336 330 327 323 318 315 312 309 307 304 301 299